Погода в Кариасика

Бразилия     20°19′01″S   40°23′01″W
темп.,
°C
ветер,
м/с
пор.,
м/с
влажн.,
%
обл.,
%
осадки,
мм/ч
давл.,
гПа
погр.,
м
27 февраля, сб
сб2700:00+20зсз1296100 0.0 101528
03:00+19зсз129197 0.0 101429
06:00+20зсз228290 0.0 101440
09:00+24всв117795 0.0 1016141
12:00+25всв238782 1.7 1016623
15:00+24всв239091 5.3 1014643
18:00+22св119599 1.1 101426
21:00+20зсз119898 1.1 101524
28 февраля, вс
вс2800:00+20зсз1198100 0.0 101526
03:00+20з1298100 0.1 101428
06:00+19з129892 0.0 101531
09:00+25юв127893 0.3 1016751
12:00+28в335866 0.1 10151379
15:00+27в236576 0.3 10131209
18:00+22вюв129499 0.3 101351
21:00+21сз0197100 1.1 101426
1 марта, пн
пн100:00+20зсз1198100 0.7 101428
03:00+19з119796 1.4 101324
06:00+19з129897 0.0 101428
09:00+25св137485 0.1 1015800
12:00+28всв236085 0.1 10151277
15:00+27в336593 0.1 10131187
18:00+22в1289100 0.1 101343
21:00+20зсз119572 0.1 101525
2 марта, вт
вт200:00+20зсз119597 0.0 101526
03:00+19зсз119890 0.0 101424
06:00+19зсз129498 0.0 101530
09:00+26св136385 0.0 1016894
12:00+27в236532 0.3 10161066
15:00+27в346650 1.3 10141209
18:00+22вюв119132 0.3 101436
21:00+21зсз119648 0.3 101624
3 марта, ср
ср300:00+20сз119860 0.0 101626
03:00+19зсз129748 0.0 101533
06:00+19зсз229315 0.0 101737
09:00+27с13608 0.0 1018770
12:00+30всв335076 0.0 10171573
15:00+29в345884 0.0 10151160
18:00+23св129015 0.1 101448
21:00+21ссз11978 0.1 101626